DW9477 Weather Reports


Display with metric or nautical units.
time (UTC)temp
F
wind
direction
speed
MPH
gust
MPH
rain 1hr
in
rain 24hr
in
rain mn
in
humidity
%
barometer
mb
20260503040017 58 0 1.0 2.0 0.00 0.00 0.00 64 1012.0
20260503035017 61 338 1.0 2.0 0.00 0.00 0.00 56 1012.0
20260503034017 58 23 2.0 3.0 0.00 0.00 0.00 62 1011.6
20260503033018 60 23 1.0 2.0 0.00 0.00 0.00 61 1011.6
20260503032017 61 0 2.0 3.0 0.00 0.00 0.00 59 1011.3
20260503031017 62 0 1.0 2.0 0.00 0.00 0.00 54 1011.1
20260503030017 62 45 3.0 5.0 0.00 0.00 0.00 61 1011.1
20260503025017 64 23 3.0 4.0 0.00 0.00 0.00 60 1010.9
20260503024017 66 0 1.0 2.0 0.00 0.00 0.00 53 1011.2
20260503023017 67 23 2.0 3.0 0.00 0.00 0.00 55 1011.4
20260503022037 70 45 2.0 4.0 0.00 0.00 0.00 45 1011.5
20260503021017 73 0 1.0 2.0 0.00 0.00 0.00 42 1011.6
20260503020017 77 0.0 1.0 0.00 0.00 0.00 38 1011.8
20260503015017 78 0.0 1.0 0.00 0.00 0.00 39 1012.0
20260503014017 78 248 1.0 2.0 0.00 0.00 0.00 35 1011.9
20260503013017 79 248 1.0 2.0 0.00 0.00 0.00 38 1011.8
20260503012017 79 0.0 1.0 0.00 0.00 0.00 31 1011.7
20260503011017 78 225 2.0 3.0 0.00 0.00 0.00 31 1011.7
20260503010037 79 0.0 1.0 0.00 0.00 0.00 39 1011.9
20260503005017 77 0.0 1.0 0.00 0.00 0.00 35 1011.7
20260503004017 77 0.0 2.0 0.00 0.00 0.00 32 1011.7
20260503003017 78 338 1.0 3.0 0.00 0.00 0.00 31 1011.7
20260503002017 78 338 2.0 4.0 0.00 0.00 0.00 31 1012.0
20260503001037 79 338 1.0 2.0 0.00 0.00 0.00 31 1012.0
20260503000017 80 248 2.0 3.0 0.00 0.00 0.00 32 1012.2
20260502235017 80 0.0 1.0 0.00 0.00 0.00 32 1012.3
20260502234017 79 158 2.0 4.0 0.00 0.00 0.00 35 1012.4
20260502233017 78 248 4.0 6.0 0.00 0.00 0.00 36 1012.4
20260502232017 78 45 1.0 3.0 0.00 0.00 0.00 35 1012.6
20260502231016 78 45 1.0 4.0 0.00 0.00 0.00 30 1012.6
20260502230016 79 23 3.0 5.0 0.00 0.00 0.00 31 1012.8
20260502225016 79 0.0 1.0 0.00 0.00 0.00 34 1013.1
20260502224017 79 68 1.0 4.0 0.00 0.00 0.00 34 1013.3
20260502223017 79 45 2.0 4.0 0.00 0.00 0.00 30 1013.5
20260502222020 79 225 1.0 2.0 0.00 0.00 0.00 28 1013.6
20260502221016 78 248 2.0 4.0 0.00 0.00 0.00 27 1013.7
20260502220036 78 225 1.0 5.0 0.00 0.00 0.00 31 1014.0
20260502215016 76 248 2.0 4.0 0.00 0.00 0.00 36 1014.1
20260502214016 77 135 2.0 4.0 0.00 0.00 0.00 32 1014.2
20260502213017 78 158 2.0 5.0 0.00 0.00 0.00 34 1014.5
20260502212016 78 23 1.0 3.0 0.00 0.00 0.00 35 1014.8
20260502211016 77 135 2.0 4.0 0.00 0.00 0.00 34 1014.7
20260502210017 77 270 1.0 3.0 0.00 0.00 0.00 37 1014.9
20260502205016 77 158 2.0 6.0 0.00 0.00 0.00 34 1015.2
20260502204016 76 248 2.0 5.0 0.00 0.00 0.00 36 1015.3
20260502203017 76 90 2.0 6.0 0.00 0.00 0.00 36 1015.4
20260502202017 76 113 1.0 2.0 0.00 0.00 0.00 35 1015.5
20260502201016 76 158 2.0 6.0 0.00 0.00 0.00 33 1015.6
20260502200016 75 158 2.0 5.0 0.00 0.00 0.00 34 1015.7
20260502195016 75 135 2.0 5.0 0.00 0.00 0.00 37 1015.7
20260502194016 75 135 2.0 4.0 0.00 0.00 0.00 39 1015.8
20260502193016 75 270 1.0 2.0 0.00 0.00 0.00 39 1015.7
20260502192016 74 113 2.0 5.0 0.00 0.00 0.00 39 1015.8
20260502191016 73 248 1.0 3.0 0.00 0.00 0.00 37 1015.9
20260502190016 73 135 2.0 3.0 0.00 0.00 0.00 41 1016.0
20260502185016 73 270 1.0 3.0 0.00 0.00 0.00 41 1016.1
20260502184021 73 315 1.0 3.0 0.00 0.00 0.00 43 1016.3
20260502183016 71 113 2.0 3.0 0.00 0.00 0.00 48 1016.3
20260502182036 71 113 2.0 4.0 0.00 0.00 0.00 43 1016.5
20260502181036 70 225 2.0 3.0 0.00 0.00 0.00 46 1016.5
20260502164016 66 158 2.0 5.0 0.00 0.00 0.00 51 1017.0
20260502163056 64 158 1.0 3.0 0.00 0.00 0.00 52 1017.1
20260502162016 63 135 1.0 3.0 0.00 0.00 0.00 54 1016.9
20260502161036 62 113 2.0 4.0 0.00 0.00 0.00 56 1017.0
20260502152016 57 135 1.0 3.0 0.00 0.00 0.00 65 1016.5
20260502151036 55 135 2.0 3.0 0.00 0.00 0.00 67 1016.5
20260502123021 43 0 1.0 3.0 0.00 0.00 0.00 82 1016.2
20260502122017 44 23 2.0 2.0 0.00 0.00 0.00 82 1016.4
20260502121037 44 0 2.0 3.0 0.00 0.00 0.00 81 1016.4
20260502115015 45 23 1.0 2.0 0.00 0.00 0.00 80 1016.6
20260502114017 45 45 1.0 2.0 0.00 0.00 0.00 79 1016.5
20260502113017 45 0 2.0 3.0 0.00 0.00 0.00 80 1016.5
20260502112037 45 45 3.0 4.0 0.00 0.00 0.00 81 1016.5
20260502111038 45 23 2.0 3.0 0.00 0.00 0.00 81 1016.4
20260502110017 45 23 2.0 3.0 0.00 0.00 0.00 81 1016.5
20260502105017 45 0 2.0 3.0 0.00 0.00 0.00 80 1016.5
20260502104017 45 23 3.0 4.0 0.00 0.00 0.00 80 1016.4
20260502103017 46 23 2.0 4.0 0.00 0.00 0.00 79 1016.5
20260502102017 46 23 2.0 3.0 0.00 0.00 0.00 79 1016.5
20260502101017 46 23 2.0 4.0 0.00 0.00 0.00 79 1016.4
20260502091017 48 23 2.0 5.0 0.00 0.00 0.00 76 1016.4
20260502071017 49 45 2.0 3.0 0.00 0.00 0.00 75 1016.5
20260502070016 50 45 1.0 3.0 0.00 0.00 0.00 73 1016.6
20260502065017 49 338 2.0 3.0 0.00 0.00 0.00 76 1016.5
20260502064017 49 0 1.0 2.0 0.00 0.00 0.00 75 1016.5
20260502063017 50 45 1.0 3.0 0.00 0.00 0.00 74 1016.7
20260502062016 50 23 2.0 4.0 0.00 0.00 0.00 74 1016.4
20260502061037 50 0 1.0 2.0 0.00 0.00 0.00 73 1016.4
20260502060017 50 0 2.0 5.0 0.00 0.00 0.00 72 1016.4
20260502055036 52 0 1.0 3.0 0.00 0.00 0.00 69 1016.5
20260502054016 51 45 2.0 3.0 0.00 0.00 0.00 72 1016.5
20260502053016 51 23 2.0 3.0 0.00 0.00 0.00 71 1016.5
20260502052036 52 45 2.0 4.0 0.00 0.00 0.00 70 1016.3
20260502051016 52 0 1.0 3.0 0.00 0.00 0.00 69 1016.4
20260502050036 52 45 1.0 3.0 0.00 0.00 0.00 69 1016.5
20260502045015 53 23 1.0 2.0 0.00 0.00 0.00 68 1016.5
20260502044015 53 0 1.0 2.0 0.00 0.00 0.00 68 1016.5
20260502043015 54 23 1.0 3.0 0.00 0.00 0.00 67 1016.4
20260502042036 54 0 1.0 2.0 0.00 0.00 0.00 67 1016.3
20260502041016 55 0.0 1.0 0.00 0.00 0.00 65 1016.4